Regional Weather Roundup
Issued by NWS

Home | Current Version | Previous Version | Graphics & Text | Print | Product List | Glossary On
Versions: 1 2 3 4 5 6 7 8 9 10 11 12 13 14 15 16 17 18 19 20 21 22 23 24 25 26 27 28 29 30 31 32 33 34 35 36 37 38 39 40 41 42 43 44 45 46 47 48 49 50
000
ASUS43 KLSX 011707
RWRMO

WEATHER SUMMARY FOR MISSOURI
NATIONAL WEATHER SERVICE SPRINGFIELD MO
1200 PM CDT SAT AUG 01 2015

NOTE: "FAIR" INDICATES FEW OR NO CLOUDS BELOW 12,000 FEET WITH NO
       SIGNIFICANT WEATHER AND/OR OBSTRUCTIONS TO VISIBILITY.
       CURRENT SKY AND/OR WEATHER CONDITIONS ARE NOT AVAILABLE FOR
       CHILLICOTHE AND FARMINGTON.

MOZ001>031-035>038-043-044-053-054-011800-
...NORTHERN AND WESTERN MISSOURI...

CITY           SKY/WX    TMP DP  RH WIND       PRES   REMARKS
KANSAS CTY INT PTSUNNY   85  75  72 W5        30.06F HX  93
KANSAS C DTWN  PTSUNNY   84  73  69 SW7       30.06R HX  90
LEE`S SUMMIT   PTSUNNY   84  71  65 W8        30.07F
ST JOSEPH      SUNNY     86  74  67 W6        30.04F HX  94
CHILLICOTHE      N/A     83  74  74 SE5       30.05F
KIRKSVILLE     PTSUNNY   83  70  64 S5        30.05F

$$
MOZ066>068-077>081-088>096-101>105-011800-
...SOUTHWEST MISSOURI...

CITY           SKY/WX    TMP DP  RH WIND       PRES   REMARKS
SPRINGFIELD    SUNNY     86  62  44 SW9       30.10S
JOPLIN         SUNNY     88  61  40 CALM      30.09F

$$
MOZ032>034-039>042-045>050-055>058-069>072-011800-
...CENTRAL MISSOURI...

CITY           SKY/WX    TMP DP  RH WIND       PRES   REMARKS
COLUMBIA       PTSUNNY   84  71  65 S5        30.06F
JEFFERSON CITY MOSUNNY   86  69  56 NE3       30.04F HX  90
ROLLA          MOSUNNY   85  70  60 CALM      30.06F
SEDALIA        SUNNY     89  72  56 CALM      30.06F HX  96
WHITEMAN AFB   SUNNY     89  72  57 VRB5      30.04F HX  95
WARRENSBURG    MOSUNNY   88  72  58 W6        30.05F HX  94
OSAGE BEACH    SUNNY     88  72  58 W8        30.07F HX  94

$$
MOZ051-052-059>065-011800-
...EAST CENTRAL MISSOURI...

CITY           SKY/WX    TMP DP  RH WIND       PRES   REMARKS
ST LOUIS INTL  PTSUNNY   85  59  41 E6        30.07F
SPIRIT OF STL  SUNNY     84  63  49 SE7       30.05F
ST CHARLES     MOSUNNY   83  63  50 S6        30.05F

$$
MOZ072>076-082>087-097>100-106>115-011800-
...SOUTH CENTRAL AND SOUTHEAST MISSOURI...

CITY           SKY/WX    TMP DP  RH WIND       PRES   REMARKS
CAPE GIRARDEAU SUNNY     87  71  58 NE8       30.04S HX  93
FARMINGTON     SUNNY     84  68  58 CALM      30.11F
POPLAR BLUFF   SUNNY     90  68  48 VRB3      30.03F HX  94
WEST PLAINS    SUNNY     88  64  44 VRB5      30.11S

$$



USA.gov is the U.S. government's official web portal to all federal, state and local government web resources and services.